When you browse on this site, cookies collect data to enhance your experience and personalize the content and advertising you see.
Visit our Privacy Policy to learn more. By continuing to use the site, you agree to this use of cookies and data.
  • In Österreich
  • Länderverzeichnis
  • Für 7 Tage
  • Wassertemperatur
  • Satellitenkarten
  • Wetterkarte
  • News
  • Widgets
  • user-avatar
    Anmelden

    Stündliche Wetter Mainz

    Heute, 10 Dezember, Montag

    Zeit Temperatur Niederschläge Wind Luftdruck Luftfeuchtigkeit
    00:00 +6°C° 0.2 mm 5 m/S 752 mmHg 79%
    01:00 +5°C° 0 mm 4 m/S 752 mmHg 79%
    02:00 +5°C° 0.1 mm 4 m/S 753 mmHg 79%
    03:00 +5°C° 0.1 mm 4 m/S 753 mmHg 79%
    04:00 +3°C° 0.1 mm 5 m/S 754 mmHg 79%
    05:00 +3°C° 0.1 mm 5 m/S 754 mmHg 79%
    06:00 +4°C° 0.1 mm 4 m/S 755 mmHg 80%
    07:00 +3°C° 0 mm 3 m/S 755 mmHg 83%
    08:00 +4°C° 0 mm 3 m/S 756 mmHg 81%
    09:00 +4°C° 0 mm 4 m/S 756 mmHg 80%
    10:00 +3°C° 0 mm 5 m/S 756 mmHg 79%
    11:00 +5°C° 0.2 mm 5 m/S 756 mmHg 76%
    12:00 +5°C° 0.2 mm 5 m/S 756 mmHg 73%
    13:00 +5°C° 0 mm 4 m/S 757 mmHg 71%
    14:00 +5°C° 0.2 mm 5 m/S 756 mmHg 72%
    15:00 +5°C° 0.2 mm 5 m/S 756 mmHg 73%
    16:00 +5°C° 0.2 mm 5 m/S 756 mmHg 74%
    17:00 +5°C° 0.3 mm 5 m/S 756 mmHg 75%
    18:00 +3°C° 0.3 mm 5 m/S 757 mmHg 76%
    19:00 +4°C° 0.3 mm 4 m/S 757 mmHg 78%
    20:00 +3°C° 0 mm 4 m/S 757 mmHg 78%
    21:00 +3°C° 0 mm 4 m/S 757 mmHg 78%
    22:00 +3°C° 0 mm 4 m/S 757 mmHg 78%
    23:00 +1°C° 0 mm 4 m/S 757 mmHg 79%

    Morgen, 11 Dezember, Dienstag

    Zeit Temperatur Niederschläge Wind Luftdruck Luftfeuchtigkeit
    00:00 +1°C° 0 mm 4 m/S 758 mmHg 79%
    01:00 +1°C° 0 mm 4 m/S 758 mmHg 80%
    02:00 +1°C° 0 mm 4 m/S 758 mmHg 82%
    03:00 +1°C° 0 mm 4 m/S 758 mmHg 83%
    04:00 +1°C° 0 mm 4 m/S 758 mmHg 84%
    05:00 +2°C° 0 mm 3 m/S 758 mmHg 85%
    06:00 +2°C° 0 mm 3 m/S 758 mmHg 85%
    07:00 +1°C° 0 mm 3 m/S 758 mmHg 86%
    08:00 +2°C° 0.1 mm 3 m/S 758 mmHg 85%
    09:00 +2°C° 0.1 mm 3 m/S 758 mmHg 83%
    10:00 +3°C° 0.1 mm 4 m/S 758 mmHg 81%
    11:00 +4°C° 0.1 mm 4 m/S 758 mmHg 77%
    12:00 +4°C° 0.1 mm 4 m/S 758 mmHg 72%
    13:00 +5°C° 0.1 mm 4 m/S 758 mmHg 68%
    14:00 +5°C° 0 mm 3 m/S 758 mmHg 70%
    15:00 +4°C° 0 mm 3 m/S 758 mmHg 72%
    16:00 +5°C° 0 mm 2 m/S 758 mmHg 74%
    17:00 +4°C° 0 mm 2 m/S 758 mmHg 77%
    18:00 +3°C° 0 mm 2 m/S 758 mmHg 81%
    19:00 +3°C° 0 mm 2 m/S 758 mmHg 84%
    20:00 +2°C° 0 mm 2 m/S 758 mmHg 85%
    21:00 +3°C° 0 mm 1 m/S 758 mmHg 86%
    22:00 +3°C° 0 mm 1 m/S 758 mmHg 87%
    23:00 +3°C° 0 mm 1 m/S 758 mmHg 87%

    übermorgen, 12 Dezember, Mittwoch

    Zeit Temperatur Niederschläge Wind Luftdruck Luftfeuchtigkeit
    00:00 +2°C° 0 mm 1 m/S 758 mmHg 87%
    01:00 +2°C° 0 mm 1 m/S 758 mmHg 87%
    02:00 +2°C° 0 mm 1 m/S 758 mmHg 88%
    03:00 +2°C° 0 mm 1 m/S 758 mmHg 88%
    04:00 +2°C° 0 mm 1 m/S 758 mmHg 88%
    05:00 +2°C° 0 mm 1 m/S 758 mmHg 89%
    06:00 +2°C° 0 mm 1 m/S 758 mmHg 89%
    07:00 +1°C° 0 mm 0 m/S 758 mmHg 90%
    08:00 +2°C° 0 mm 1 m/S 759 mmHg 88%
    09:00 +3°C° 0 mm 1 m/S 759 mmHg 87%
    10:00 +3°C° 0 mm 1 m/S 759 mmHg 85%
    11:00 +4°C° 0 mm 1 m/S 759 mmHg 82%
    12:00 +4°C° 0 mm 1 m/S 758 mmHg 79%
    13:00 +4°C° 0 mm 2 m/S 758 mmHg 76%
    14:00 +4°C° 0 mm 2 m/S 758 mmHg 78%
    15:00 +3°C° 0 mm 2 m/S 758 mmHg 80%
    16:00 +3°C° 0 mm 2 m/S 758 mmHg 81%
    17:00 +3°C° 0 mm 2 m/S 758 mmHg 83%
    18:00 +2°C° 0 mm 2 m/S 758 mmHg 84%
    19:00 +2°C° 0 mm 2 m/S 758 mmHg 86%
    20:00 +2°C° 0 mm 2 m/S 757 mmHg 86%
    21:00 +2°C° 0 mm 2 m/S 757 mmHg 86%
    22:00 +1°C° 0 mm 2 m/S 757 mmHg 86%
    23:00 +1°C° 0 mm 2 m/S 757 mmHg 87%

    13 Dezember, Donnerstag

    Zeit Temperatur Niederschläge Wind Luftdruck Luftfeuchtigkeit
    00:00 +1°C° 0 mm 2 m/S 757 mmHg 89%
    01:00 +1°C° 0 mm 2 m/S 756 mmHg 90%
    02:00 +1°C° 0 mm 2 m/S 756 mmHg 90%
    03:00 -1°C° 0 mm 2 m/S 756 mmHg 89%
    04:00 -1°C° 0 mm 2 m/S 755 mmHg 89%
    05:00 -1°C° 0 mm 3 m/S 755 mmHg 87%
    06:00 -1°C° 0 mm 3 m/S 755 mmHg 86%
    07:00 -1°C° 0 mm 3 m/S 755 mmHg 84%
    08:00 -1°C° 0 mm 3 m/S 755 mmHg 81%
    09:00 -2°C° 0 mm 4 m/S 755 mmHg 77%
    10:00 -2°C° 0 mm 4 m/S 755 mmHg 73%
    11:00 -1°C° 0 mm 4 m/S 754 mmHg 70%
    12:00 -1°C° 0 mm 4 m/S 754 mmHg 67%
    13:00 0°C° 0 mm 4 m/S 754 mmHg 63%
    14:00 0°C° 0 mm 4 m/S 754 mmHg 65%
    15:00 +1°C° 0 mm 3 m/S 754 mmHg 66%
    16:00 0°C° 0 mm 3 m/S 754 mmHg 68%
    17:00 0°C° 0 mm 3 m/S 754 mmHg 70%
    18:00 -1°C° 0 mm 4 m/S 755 mmHg 72%
    19:00 -2°C° 0 mm 4 m/S 755 mmHg 73%
    20:00 -2°C° 0 mm 4 m/S 755 mmHg 75%
    21:00 -1°C° 0 mm 3 m/S 755 mmHg 77%
    22:00 -2°C° 0 mm 3 m/S 756 mmHg 78%
    23:00 -2°C° 0 mm 3 m/S 756 mmHg 79%

    14 Dezember, Freitag

    Zeit Temperatur Niederschläge Wind Luftdruck Luftfeuchtigkeit
    00:00 -2°C° 0 mm 3 m/S 756 mmHg 79%
    01:00 -2°C° 0 mm 3 m/S 756 mmHg 80%
    02:00 -2°C° 0 mm 3 m/S 756 mmHg 80%
    03:00 -2°C° 0 mm 3 m/S 756 mmHg 80%
    04:00 -2°C° 0 mm 3 m/S 756 mmHg 80%
    05:00 -4°C° 0 mm 3 m/S 756 mmHg 80%
    06:00 -4°C° 0 mm 3 m/S 756 mmHg 80%
    07:00 -4°C° 0 mm 3 m/S 757 mmHg 80%
    08:00 -2°C° 0 mm 3 m/S 757 mmHg 78%
    09:00 -2°C° 0 mm 3 m/S 757 mmHg 76%
    10:00 -2°C° 0 mm 3 m/S 757 mmHg 74%
    11:00 -1°C° 0 mm 3 m/S 757 mmHg 71%
    12:00 0°C° 0 mm 3 m/S 757 mmHg 67%
    13:00 0°C° 0 mm 3 m/S 757 mmHg 64%
    14:00 +1°C° 0 mm 2 m/S 758 mmHg 66%
    15:00 -1°C° 0 mm 2 m/S 758 mmHg 69%
    16:00 -1°C° 0 mm 2 m/S 758 mmHg 72%
    17:00 +1°C° 0 mm 1 m/S 758 mmHg 74%
    18:00 0°C° 0 mm 1 m/S 759 mmHg 77%
    19:00 0°C° 0 mm 1 m/S 759 mmHg 80%
    20:00 0°C° 0 mm 1 m/S 760 mmHg 81%
    21:00 -1°C° 0 mm 1 m/S 760 mmHg 81%
    22:00 -1°C° 0 mm 1 m/S 760 mmHg 82%
    23:00 -1°C° 0 mm 1 m/S 760 mmHg 83%

    15 Dezember, Samstag

    Zeit Temperatur Niederschläge Wind Luftdruck Luftfeuchtigkeit
    00:00 -1°C° 0 mm 1 m/S 760 mmHg 84%
    01:00 -1°C° 0 mm 1 m/S 760 mmHg 84%
    02:00 -1°C° 0 mm 1 m/S 760 mmHg 85%
    03:00 -2°C° 0 mm 0 m/S 761 mmHg 85%
    04:00 -2°C° 0 mm 0 m/S 761 mmHg 86%
    05:00 -1°C° 0 mm 1 m/S 761 mmHg 86%
    06:00 -1°C° 0 mm 1 m/S 761 mmHg 86%
    07:00 -1°C° 0 mm 1 m/S 761 mmHg 86%
    08:00 -1°C° 0 mm 1 m/S 761 mmHg 84%
    09:00 -1°C° 0 mm 1 m/S 762 mmHg 81%
    10:00 -1°C° 0 mm 0 m/S 762 mmHg 79%
    11:00 0°C° 0 mm 1 m/S 761 mmHg 74%
    12:00 +1°C° 0 mm 1 m/S 761 mmHg 69%
    13:00 +2°C° 0 mm 1 m/S 761 mmHg 64%
    14:00 +2°C° 0 mm 1 m/S 761 mmHg 67%
    15:00 +1°C° 0 mm 1 m/S 761 mmHg 69%
    16:00 +1°C° 0 mm 1 m/S 760 mmHg 72%
    17:00 0°C° 0 mm 1 m/S 760 mmHg 74%
    18:00 0°C° 0 mm 1 m/S 760 mmHg 75%
    19:00 0°C° 0 mm 1 m/S 760 mmHg 77%
    20:00 0°C° 0 mm 1 m/S 760 mmHg 75%
    21:00 0°C° 0 mm 1 m/S 760 mmHg 74%
    22:00 0°C° 0 mm 1 m/S 760 mmHg 73%
    23:00 0°C° 0 mm 1 m/S 759 mmHg 72%
    Mehr zeigen